Page, AZ

8:46 PM MDT on April 30, 2017 (GMT -0600)
Page Municipal

Weather History for KPGA - June, 2013

Change the Weather History Date:

Tuesday, June 25, 2013

  Actual Average Record
Temperature  
Mean Temperature 83 °F -  
Max Temperature 96 °F 94 °F 106 °F (1990)
Min Temperature 70 °F 66 °F 52 °F (1969)
Cooling Degree Days 18    
Growing Degree Days 33 (Base 50)    
Moisture  
Dew Point 26 °F    
Average Humidity 12    
Maximum Humidity 19    
Minimum Humidity 4    
Precipitation  
Precipitation 0.00 in - - ()
Sea Level Pressure  
Sea Level Pressure 29.79 in    
Wind  
Wind Speed 5 mph (NW)    
Max Wind Speed 12 mph    
Max Gust Speed 18 mph    
Visibility 10 miles    
Events      
Averages and records for this station are not official NWS values.
T = Trace of Precipitation, MM = Missing Value Source: NWS Daily Summary

Daily Weather History Graph

Daily Weather History Graph

Search for Another Location

Airport or City:

Trip Planner

Search our weather history database for the weather conditions in past years. The results will help you decide how hot, cold, wet, or windy it might be!

Date:

Astronomy

Jun. 25, 2013 Rise Set
Actual Time 5:07 AM MST 7:49 PM MST
Civil Twilight 4:37 AM MST 8:19 PM MST
Nautical Twilight 3:58 AM MST 8:58 PM MST
Astronomical Twilight 3:15 AM MST 9:41 PM MST
Moon 9:42 PM MST (6/25) 7:48 AM MST (6/25)
Length of Visible Light 15h 42m
Length of Day
14h 41m
Waning Gibbous, 92% of the Moon is Illuminated
Jun 25
Waning Gibbous
Jun 29
Last Quarter
Jul 8
New
Jul 15
First Quarter
Jul 22
Full

Hourly Weather History & Observations

Time (MST) Temp. Dew Point Humidity Pressure Visibility Wind Dir Wind Speed Gust Speed Precip Events Conditions
12:53 AM 73.9 °F 15.1 °F 11% 29.74 in 10.0 mi South 5.8 mph - N/A   Clear
1:53 AM 75.0 °F 14.0 °F 10% 29.75 in 10.0 mi South 4.6 mph - N/A   Clear
2:53 AM 73.9 °F 16.0 °F 11% 29.76 in 10.0 mi South 5.8 mph - N/A   Clear
3:53 AM 72.0 °F 17.1 °F 12% 29.78 in 10.0 mi SSW 3.5 mph - N/A   Clear
4:53 AM 70.0 °F 17.1 °F 13% 29.80 in 10.0 mi WSW 3.5 mph - N/A   Clear
5:53 AM 71.1 °F 18.0 °F 13% 29.81 in 10.0 mi SSW 3.5 mph - N/A   Clear
6:53 AM 73.9 °F 21.9 °F 14% 29.83 in 10.0 mi WSW 3.5 mph - N/A   Clear
7:53 AM 77.0 °F 21.9 °F 13% 29.85 in 10.0 mi NNW 4.6 mph - N/A   Clear
8:53 AM 80.1 °F 23.0 °F 12% 29.85 in 10.0 mi NNE 5.8 mph - N/A   Clear
9:53 AM 82.0 °F 25.0 °F 12% 29.85 in 10.0 mi North 6.9 mph - N/A   Clear
10:53 AM 84.0 °F 27.0 °F 13% 29.84 in 10.0 mi North 9.2 mph - N/A   Clear
11:53 AM 86.0 °F 28.0 °F 12% 29.83 in 10.0 mi Variable 4.6 mph - N/A   Clear
12:53 PM 89.1 °F 28.9 °F 12% 29.81 in 10.0 mi NNE 9.2 mph - N/A   Clear
1:53 PM 91.0 °F 28.9 °F 11% 29.79 in 10.0 mi North 11.5 mph 18.4 mph N/A   Clear
2:53 PM 91.0 °F 30.0 °F 11% 29.77 in 10.0 mi Variable 4.6 mph - N/A   Clear
3:53 PM 93.0 °F 30.0 °F 11% 29.75 in 10.0 mi North 6.9 mph - N/A   Clear
4:53 PM 95.0 °F 30.0 °F 10% 29.74 in 10.0 mi ENE 9.2 mph - N/A   Clear
5:53 PM 93.9 °F 30.9 °F 11% 29.73 in 10.0 mi NE 6.9 mph - N/A   Clear
6:53 PM 93.0 °F 30.0 °F 11% 29.72 in 10.0 mi NE 5.8 mph - N/A   Clear
7:53 PM 90.0 °F 32.0 °F 13% 29.73 in 10.0 mi Calm Calm - N/A   Clear
8:53 PM 87.1 °F 33.1 °F 15% 29.75 in 10.0 mi Calm Calm - N/A   Clear
9:53 PM 87.1 °F 35.1 °F 16% 29.77 in 10.0 mi West 4.6 mph - N/A   Clear
10:53 PM 84.9 °F 36.0 °F 17% 29.78 in 10.0 mi West 4.6 mph - N/A   Clear
11:53 PM 84.0 °F 37.0 °F 19% 29.80 in 10.0 mi West 4.6 mph - N/A   Clear